Time,TemperatureF,DewpointF,PressureIn,WindDirection,WindDirectionDegrees,WindSpeedMPH,WindSpeedGustMPH,Humidity,HourlyPrecipIn,Conditions,Clouds,dailyrainin,SoftwareType,DateUTC
2013-01-28 00:00:00,29.9,24.8,30.41,SE,135,2.9,6.0,81,0.00,,,0.00,WUHU216HW,2013-01-28 05:00:00,
2013-01-28 00:02:00,29.9,24.5,30.40,SE,135,2.5,6.0,80,0.00,,,0.00,WUHU216HW,2013-01-28 05:02:00,
2013-01-28 00:07:00,30.1,24.9,30.41,SE,135,3.8,4.9,81,0.00,,,0.00,WUHU216HW,2013-01-28 05:07:00,
2013-01-28 00:12:00,30.1,24.7,30.41,ESE,113,3.1,4.7,80,0.00,,,0.00,WUHU216HW,2013-01-28 05:12:00,
2013-01-28 00:17:00,30.1,24.7,30.40,ESE,113,3.6,4.5,80,0.00,,,0.00,WUHU216HW,2013-01-28 05:17:00,
2013-01-28 00:22:00,30.1,24.3,30.40,SSE,158,3.4,5.4,79,0.00,,,0.00,WUHU216HW,2013-01-28 05:22:00,
2013-01-28 00:27:00,30.2,24.5,30.39,ESE,113,1.6,5.4,79,0.00,,,0.00,WUHU216HW,2013-01-28 05:27:00,
2013-01-28 00:32:00,30.2,24.5,30.38,ESE,113,4.9,4.9,79,0.00,,,0.00,WUHU216HW,2013-01-28 05:32:00,
2013-01-28 00:37:00,30.2,24.5,30.37,SSE,158,6.3,6.3,79,0.00,,,0.00,WUHU216HW,2013-01-28 05:37:00,
2013-01-28 00:42:00,30.2,24.5,30.36,SE,135,4.9,6.9,79,0.00,,,0.00,WUHU216HW,2013-01-28 05:42:00,
2013-01-28 00:47:00,30.2,24.5,30.37,SSE,158,4.0,6.9,79,0.00,,,0.00,WUHU216HW,2013-01-28 05:47:00,
2013-01-28 00:52:00,30.4,24.7,30.38,SSE,158,4.7,6.0,79,0.00,,,0.00,WUHU216HW,2013-01-28 05:52:00,
2013-01-28 00:57:00,30.6,24.8,30.38,SSE,158,3.4,4.7,79,0.00,,,0.00,WUHU216HW,2013-01-28 05:57:00,
2013-01-28 01:02:00,30.8,25.0,30.36,SE,135,3.8,4.7,79,0.00,,,0.00,WUHU216HW,2013-01-28 06:02:00,
2013-01-28 01:07:00,30.6,24.8,30.36,South,180,6.7,6.7,79,0.00,,,0.00,WUHU216HW,2013-01-28 06:07:00,
2013-01-28 01:12:00,30.6,24.6,30.35,SSW,203,4.3,6.7,78,0.00,,,0.00,WUHU216HW,2013-01-28 06:12:00,
2013-01-28 01:17:00,30.6,24.8,30.35,ESE,113,2.7,6.0,79,0.00,,,0.00,WUHU216HW,2013-01-28 06:17:00,
2013-01-28 01:22:00,30.8,25.0,30.35,East,90,5.4,6.9,79,0.00,,,0.00,WUHU216HW,2013-01-28 06:22:00,
2013-01-28 01:27:00,30.8,25.0,30.34,ENE,68,3.4,6.9,79,0.00,,,0.00,WUHU216HW,2013-01-28 06:27:00,
2013-01-28 01:32:00,30.8,25.0,30.33,South,180,5.6,5.6,79,0.00,,,0.00,WUHU216HW,2013-01-28 06:32:00,
2013-01-28 01:37:00,31.0,25.2,30.33,SSE,158,6.9,6.9,79,0.00,,,0.00,WUHU216HW,2013-01-28 06:37:00,
2013-01-28 01:42:00,31.0,25.2,30.33,SE,135,2.7,6.9,79,0.00,,,0.00,WUHU216HW,2013-01-28 06:42:00,
2013-01-28 01:47:00,31.0,25.6,30.33,SSE,158,4.7,6.3,80,0.00,,,0.00,WUHU216HW,2013-01-28 06:47:00,
2013-01-28 01:52:00,31.1,26.0,30.32,South,180,4.0,6.3,81,0.00,,,0.00,WUHU216HW,2013-01-28 06:52:00,
2013-01-28 01:57:00,31.1,26.0,30.32,SSW,203,5.1,7.2,81,0.00,,,0.00,WUHU216HW,2013-01-28 06:57:00,
2013-01-28 02:02:00,31.1,26.0,30.33,WNW,293,2.7,7.2,81,0.00,,,0.00,WUHU216HW,2013-01-28 07:02:00,
2013-01-28 02:07:00,31.3,26.5,30.33,SSE,158,3.8,6.9,82,0.00,,,0.00,WUHU216HW,2013-01-28 07:07:00,
2013-01-28 02:12:00,31.3,26.8,30.34,SE,135,3.8,6.0,83,0.00,,,0.00,WUHU216HW,2013-01-28 07:12:00,
2013-01-28 02:17:00,31.5,27.0,30.34,South,180,4.5,6.7,83,0.00,,,0.00,WUHU216HW,2013-01-28 07:17:00,
2013-01-28 02:22:00,31.5,27.5,30.33,SSW,203,2.5,6.7,85,0.00,,,0.00,WUHU216HW,2013-01-28 07:22:00,
2013-01-28 02:27:00,31.5,27.5,30.32,SSE,158,2.5,5.4,85,0.00,,,0.00,WUHU216HW,2013-01-28 07:27:00,
2013-01-28 02:32:00,31.5,27.8,30.32,SSE,158,4.9,5.4,86,0.00,,,0.00,WUHU216HW,2013-01-28 07:32:00,
2013-01-28 02:37:00,31.7,28.3,30.32,ESE,113,3.8,4.9,87,0.00,,,0.00,WUHU216HW,2013-01-28 07:37:00,
2013-01-28 02:42:00,31.9,28.4,30.32,SE,135,2.9,4.7,87,0.00,,,0.00,WUHU216HW,2013-01-28 07:42:00,
2013-01-28 02:47:00,32.0,29.0,30.32,SE,135,5.1,7.2,88,0.00,,,0.00,WUHU216HW,2013-01-28 07:47:00,
2013-01-28 02:52:00,32.0,29.0,30.32,NE,45,4.7,7.2,88,0.00,,,0.00,WUHU216HW,2013-01-28 07:52:00,
2013-01-28 02:57:00,32.2,29.4,30.31,SE,135,2.5,6.0,89,0.00,,,0.00,WUHU216HW,2013-01-28 07:57:00,
2013-01-28 03:02:00,32.4,29.5,30.31,SSE,158,3.4,6.0,89,0.00,,,0.00,WUHU216HW,2013-01-28 08:02:00,
2013-01-28 03:07:00,32.4,29.5,30.31,SSE,158,2.9,7.6,89,0.00,,,0.00,WUHU216HW,2013-01-28 08:07:00,
2013-01-28 03:12:00,32.6,29.7,30.31,ESE,113,3.1,7.6,89,0.00,,,0.00,WUHU216HW,2013-01-28 08:12:00,
2013-01-28 03:17:00,32.8,30.2,30.30,East,90,2.5,4.9,90,0.00,,,0.00,WUHU216HW,2013-01-28 08:17:00,
2013-01-28 03:22:00,32.8,30.2,30.30,SE,135,6.0,7.4,90,0.00,,,0.00,WUHU216HW,2013-01-28 08:22:00,
2013-01-28 03:27:00,32.8,30.2,30.29,ESE,113,3.1,7.4,90,0.00,,,0.00,WUHU216HW,2013-01-28 08:27:00,
2013-01-28 03:32:00,32.9,30.3,30.28,SW,225,4.0,6.9,90,0.00,,,0.00,WUHU216HW,2013-01-28 08:32:00,
2013-01-28 03:37:00,33.1,30.5,30.27,SSE,158,4.3,6.3,90,0.00,,,0.00,WUHU216HW,2013-01-28 08:37:00,
2013-01-28 03:42:00,33.1,30.8,30.26,ESE,113,5.4,6.3,91,0.00,,,0.00,WUHU216HW,2013-01-28 08:42:00,
2013-01-28 03:47:00,33.1,30.8,30.26,SW,225,4.5,6.3,91,0.00,,,0.00,WUHU216HW,2013-01-28 08:47:00,
2013-01-28 03:52:00,33.1,30.5,30.25,SE,135,5.6,6.3,90,0.00,,,0.00,WUHU216HW,2013-01-28 08:52:00,
2013-01-28 03:57:00,33.3,31.0,30.25,East,90,4.5,8.3,91,0.00,,,0.00,WUHU216HW,2013-01-28 08:57:00,
2013-01-28 04:02:00,33.5,31.1,30.25,SSW,203,5.6,8.3,91,0.00,,,0.00,WUHU216HW,2013-01-28 09:02:00,
2013-01-28 04:07:00,33.5,31.1,30.25,SE,135,7.8,8.1,91,0.00,,,0.00,WUHU216HW,2013-01-28 09:07:00,
2013-01-28 04:12:00,33.7,31.2,30.25,SSE,158,2.9,8.7,91,0.00,,,0.00,WUHU216HW,2013-01-28 09:12:00,
2013-01-28 04:17:00,33.7,31.2,30.25,SE,135,5.6,8.7,91,0.00,,,0.00,WUHU216HW,2013-01-28 09:17:00,
2013-01-28 04:22:00,33.8,31.4,30.25,SW,225,6.0,7.6,91,0.00,,,0.00,WUHU216HW,2013-01-28 09:22:00,
2013-01-28 04:27:00,33.8,31.4,30.24,SW,225,6.3,7.6,91,0.00,,,0.00,WUHU216HW,2013-01-28 09:27:00,
2013-01-28 04:32:00,33.8,31.4,30.24,SSE,158,6.3,6.3,91,0.00,,,0.00,WUHU216HW,2013-01-28 09:32:00,
2013-01-28 04:37:00,34.0,31.6,30.24,SE,135,4.9,7.6,91,0.00,,,0.00,WUHU216HW,2013-01-28 09:37:00,
2013-01-28 04:42:00,34.0,31.6,30.24,ESE,113,4.7,8.5,91,0.00,,,0.00,WUHU216HW,2013-01-28 09:42:00,
2013-01-28 04:47:00,34.2,31.8,30.23,South,180,4.3,8.5,91,0.00,,,0.00,WUHU216HW,2013-01-28 09:47:00,
2013-01-28 04:52:00,34.2,31.8,30.23,SSE,158,5.6,7.2,91,0.00,,,0.00,WUHU216HW,2013-01-28 09:52:00,
2013-01-28 04:57:00,34.2,31.8,30.23,ESE,113,5.4,7.6,91,0.00,,,0.00,WUHU216HW,2013-01-28 09:57:00,
2013-01-28 05:02:00,34.2,31.8,30.23,SSE,158,6.0,7.6,91,0.00,,,0.00,WUHU216HW,2013-01-28 10:02:00,
2013-01-28 05:07:00,34.4,32.0,30.23,SE,135,4.9,6.9,91,0.00,,,0.00,WUHU216HW,2013-01-28 10:07:00,
2013-01-28 05:12:00,34.7,32.3,30.22,ENE,68,4.7,7.6,91,0.00,,,0.00,WUHU216HW,2013-01-28 10:12:00,
2013-01-28 05:17:00,34.7,32.3,30.22,SSE,158,6.9,7.6,91,0.00,,,0.00,WUHU216HW,2013-01-28 10:17:00,
2013-01-28 05:22:00,34.9,32.5,30.21,ENE,68,4.5,6.9,91,0.00,,,0.00,WUHU216HW,2013-01-28 10:22:00,
2013-01-28 05:27:00,34.9,32.5,30.22,SE,135,6.9,6.9,91,0.00,,,0.00,WUHU216HW,2013-01-28 10:27:00,
2013-01-28 05:32:00,35.1,32.9,30.21,SE,135,8.5,9.4,92,0.00,,,0.00,WUHU216HW,2013-01-28 10:32:00,
2013-01-28 05:37:00,35.1,32.7,30.21,South,180,7.6,9.4,91,0.00,,,0.00,WUHU216HW,2013-01-28 10:37:00,
2013-01-28 05:42:00,35.1,32.7,30.21,SSE,158,5.1,7.8,91,0.00,,,0.00,WUHU216HW,2013-01-28 10:42:00,
2013-01-28 05:47:00,35.3,32.9,30.21,SE,135,5.4,7.8,91,0.00,,,0.00,WUHU216HW,2013-01-28 10:47:00,
2013-01-28 05:52:00,35.5,33.3,30.21,SE,135,8.5,8.5,92,0.00,,,0.00,WUHU216HW,2013-01-28 10:52:00,
2013-01-28 05:57:00,35.6,33.2,30.21,South,180,4.7,8.5,91,0.00,,,0.00,WUHU216HW,2013-01-28 10:57:00,
2013-01-28 06:02:00,35.6,33.2,30.20,North,0,3.4,6.3,91,0.00,,,0.00,WUHU216HW,2013-01-28 11:02:00,
2013-01-28 06:07:00,35.6,33.2,30.20,East,90,4.9,5.1,91,0.00,,,0.00,WUHU216HW,2013-01-28 11:07:00,
2013-01-28 06:12:00,35.6,33.2,30.19,SSW,203,3.1,6.7,91,0.00,,,0.00,WUHU216HW,2013-01-28 11:12:00,
2013-01-28 06:17:00,35.6,33.2,30.20,SSE,158,6.7,6.7,91,0.00,,,0.00,WUHU216HW,2013-01-28 11:17:00,
2013-01-28 06:22:00,35.6,33.2,30.19,East,90,5.4,6.7,91,0.00,,,0.00,WUHU216HW,2013-01-28 11:22:00,
2013-01-28 06:27:00,35.6,33.2,30.20,SSE,158,5.4,5.8,91,0.00,,,0.00,WUHU216HW,2013-01-28 11:27:00,
2013-01-28 06:32:00,35.8,33.4,30.20,ESE,113,4.9,5.6,91,0.00,,,0.00,WUHU216HW,2013-01-28 11:32:00,
2013-01-28 06:37:00,35.8,33.7,30.20,South,180,5.4,7.2,92,0.00,,,0.00,WUHU216HW,2013-01-28 11:37:00,
2013-01-28 06:42:00,36.2,34.0,30.20,South,180,3.8,7.2,92,0.00,,,0.00,WUHU216HW,2013-01-28 11:42:00,
2013-01-28 06:47:00,36.0,33.8,30.19,ESE,113,5.4,5.8,92,0.00,,,0.00,WUHU216HW,2013-01-28 11:47:00,
2013-01-28 06:52:00,36.0,33.8,30.19,SSW,203,4.5,6.7,92,0.00,,,0.00,WUHU216HW,2013-01-28 11:52:00,
2013-01-28 06:57:00,36.0,33.8,30.19,East,90,4.0,6.7,92,0.00,,,0.00,WUHU216HW,2013-01-28 11:57:00,
2013-01-28 07:02:00,36.0,33.8,30.19,South,180,4.0,5.1,92,0.00,,,0.00,WUHU216HW,2013-01-28 12:02:00,
2013-01-28 07:07:00,36.0,33.8,30.19,SE,135,3.1,6.3,92,0.00,,,0.00,WUHU216HW,2013-01-28 12:07:00,
2013-01-28 07:12:00,36.4,34.2,30.19,SE,135,3.4,6.3,92,0.01,,,0.01,WUHU216HW,2013-01-28 12:12:00,
2013-01-28 07:17:00,36.5,34.4,30.19,ESE,113,6.9,6.9,92,0.01,,,0.01,WUHU216HW,2013-01-28 12:17:00,
2013-01-28 07:22:00,36.5,34.4,30.19,ESE,113,6.0,6.9,92,0.01,,,0.01,WUHU216HW,2013-01-28 12:22:00,
2013-01-28 07:27:00,36.5,34.4,30.19,SE,135,4.9,6.0,92,0.01,,,0.01,WUHU216HW,2013-01-28 12:27:00,
2013-01-28 07:32:00,36.5,34.4,30.19,South,180,3.4,7.6,92,0.01,,,0.01,WUHU216HW,2013-01-28 12:32:00,
2013-01-28 07:37:00,36.5,34.4,30.19,ESE,113,3.4,7.6,92,0.01,,,0.01,WUHU216HW,2013-01-28 12:37:00,
2013-01-28 07:42:00,36.5,34.4,30.19,East,90,2.7,6.0,92,0.01,,,0.01,WUHU216HW,2013-01-28 12:42:00,
2013-01-28 07:47:00,36.7,34.6,30.19,ESE,113,3.8,7.6,92,0.01,,,0.01,WUHU216HW,2013-01-28 12:47:00,
2013-01-28 07:52:00,36.9,34.7,30.19,SSW,203,2.5,7.6,92,0.01,,,0.01,WUHU216HW,2013-01-28 12:52:00,
2013-01-28 07:57:00,37.3,35.1,30.18,ESE,113,3.4,5.8,92,0.01,,,0.01,WUHU216HW,2013-01-28 12:57:00,
2013-01-28 08:02:00,37.4,35.3,30.18,SE,135,5.4,7.8,92,0.01,,,0.01,WUHU216HW,2013-01-28 13:02:00,
2013-01-28 08:07:00,37.4,35.3,30.18,ESE,113,3.8,7.8,92,0.01,,,0.01,WUHU216HW,2013-01-28 13:07:00,
2013-01-28 08:12:00,37.4,35.3,30.18,SSW,203,3.4,7.4,92,0.00,,,0.01,WUHU216HW,2013-01-28 13:12:00,
2013-01-28 08:17:00,37.6,35.5,30.18,ESE,113,6.3,7.4,92,0.00,,,0.01,WUHU216HW,2013-01-28 13:17:00,
2013-01-28 08:22:00,37.8,35.6,30.18,SE,135,5.1,6.3,92,0.00,,,0.01,WUHU216HW,2013-01-28 13:22:00,
2013-01-28 08:27:00,37.8,35.6,30.18,SSE,158,3.1,5.8,92,0.00,,,0.01,WUHU216HW,2013-01-28 13:27:00,
2013-01-28 08:32:00,37.8,35.6,30.18,ESE,113,2.5,5.8,92,0.01,,,0.02,WUHU216HW,2013-01-28 13:32:00,
2013-01-28 08:37:00,37.8,35.6,30.18,ESE,113,4.9,4.9,92,0.01,,,0.02,WUHU216HW,2013-01-28 13:37:00,
2013-01-28 08:42:00,37.6,35.5,30.18,ESE,113,3.4,4.9,92,0.01,,,0.02,WUHU216HW,2013-01-28 13:42:00,
2013-01-28 08:47:00,37.8,35.6,30.18,SSE,158,3.6,4.9,92,0.02,,,0.03,WUHU216HW,2013-01-28 13:47:00,
2013-01-28 08:52:00,38.0,35.8,30.17,SSW,203,2.7,6.3,92,0.02,,,0.03,WUHU216HW,2013-01-28 13:52:00,
2013-01-28 08:57:00,38.2,36.0,30.17,SE,135,3.4,6.3,92,0.03,,,0.03,WUHU216HW,2013-01-28 13:57:00,
2013-01-28 09:02:00,38.2,36.0,30.17,SE,135,4.7,5.4,92,0.03,,,0.04,WUHU216HW,2013-01-28 14:02:00,
2013-01-28 09:07:00,38.3,36.2,30.17,ESE,113,2.5,5.1,92,0.03,,,0.04,WUHU216HW,2013-01-28 14:07:00,
2013-01-28 09:12:00,38.5,36.4,30.17,ESE,113,4.3,5.1,92,0.04,,,0.05,WUHU216HW,2013-01-28 14:12:00,
2013-01-28 09:17:00,38.5,36.4,30.17,ESE,113,4.5,5.1,92,0.05,,,0.05,WUHU216HW,2013-01-28 14:17:00,
2013-01-28 09:22:00,38.7,36.5,30.17,ESE,113,1.8,5.1,92,0.05,,,0.06,WUHU216HW,2013-01-28 14:22:00,
2013-01-28 09:27:00,38.7,36.5,30.18,ENE,68,3.4,5.4,92,0.04,,,0.06,WUHU216HW,2013-01-28 14:27:00,
2013-01-28 09:32:00,38.9,36.7,30.18,SE,135,1.1,5.4,92,0.04,,,0.06,WUHU216HW,2013-01-28 14:32:00,
2013-01-28 09:37:00,39.2,37.4,30.18,South,180,1.8,3.6,93,0.05,,,0.06,WUHU216HW,2013-01-28 14:37:00,
2013-01-28 09:42:00,39.2,37.4,30.18,South,180,4.0,4.7,93,0.05,,,0.07,WUHU216HW,2013-01-28 14:42:00,
2013-01-28 09:47:00,39.6,37.7,30.18,ESE,113,3.6,4.7,93,0.04,,,0.07,WUHU216HW,2013-01-28 14:47:00,
2013-01-28 09:52:00,40.0,38.1,30.19,South,180,2.2,3.6,93,0.05,,,0.08,WUHU216HW,2013-01-28 14:52:00,
2013-01-28 09:57:00,40.1,38.3,30.19,SSE,158,3.1,3.6,93,0.04,,,0.08,WUHU216HW,2013-01-28 14:57:00,
2013-01-28 10:02:00,40.3,38.4,30.19,SSE,158,3.4,3.6,93,0.04,,,0.08,WUHU216HW,2013-01-28 15:02:00,
2013-01-28 10:07:00,40.7,38.8,30.19,SE,135,2.7,3.6,93,0.05,,,0.09,WUHU216HW,2013-01-28 15:07:00,
2013-01-28 10:12:00,41.0,39.2,30.19,South,180,2.9,6.3,93,0.04,,,0.09,WUHU216HW,2013-01-28 15:12:00,
2013-01-28 10:17:00,41.4,39.5,30.19,SSW,203,2.5,6.3,93,0.04,,,0.10,WUHU216HW,2013-01-28 15:17:00,
2013-01-28 10:22:00,41.6,39.4,30.19,South,180,5.1,5.4,92,0.04,,,0.10,WUHU216HW,2013-01-28 15:22:00,
2013-01-28 10:27:00,41.9,39.8,30.19,ESE,113,1.8,5.4,92,0.04,,,0.10,WUHU216HW,2013-01-28 15:27:00,
2013-01-28 10:32:00,42.1,40.0,30.19,SE,135,2.5,5.4,92,0.04,,,0.10,WUHU216HW,2013-01-28 15:32:00,
2013-01-28 10:37:00,42.3,39.9,30.19,SSE,158,2.7,4.7,91,0.03,,,0.10,WUHU216HW,2013-01-28 15:37:00,
2013-01-28 10:42:00,42.5,40.1,30.19,ESE,113,3.1,4.7,91,0.04,,,0.11,WUHU216HW,2013-01-28 15:42:00,
2013-01-28 10:47:00,42.8,40.1,30.19,South,180,2.5,5.1,90,0.04,,,0.11,WUHU216HW,2013-01-28 15:47:00,
2013-01-28 10:52:00,42.8,40.1,30.19,SE,135,1.1,5.1,90,0.03,,,0.11,WUHU216HW,2013-01-28 15:52:00,
2013-01-28 10:57:00,43.0,40.3,30.18,SE,135,4.7,5.6,90,0.03,,,0.11,WUHU216HW,2013-01-28 15:57:00,
2013-01-28 11:02:00,43.4,40.4,30.19,SE,135,3.6,5.6,89,0.03,,,0.12,WUHU216HW,2013-01-28 16:02:00,
2013-01-28 11:07:00,43.6,40.6,30.19,East,90,4.0,4.0,89,0.03,,,0.12,WUHU216HW,2013-01-28 16:07:00,
2013-01-28 11:12:00,43.6,40.2,30.19,SE,135,2.0,5.1,88,0.03,,,0.12,WUHU216HW,2013-01-28 16:12:00,
2013-01-28 11:17:00,43.6,40.2,30.19,SSE,158,2.5,5.1,88,0.02,,,0.12,WUHU216HW,2013-01-28 16:17:00,
2013-01-28 11:22:00,43.7,40.4,30.18,ESE,113,3.8,4.7,88,0.02,,,0.12,WUHU216HW,2013-01-28 16:22:00,
2013-01-28 11:27:00,43.9,40.6,30.18,SE,135,4.7,6.3,88,0.02,,,0.12,WUHU216HW,2013-01-28 16:27:00,
2013-01-28 11:32:00,43.9,40.6,30.18,SE,135,1.6,6.3,88,0.02,,,0.12,WUHU216HW,2013-01-28 16:32:00,
2013-01-28 11:37:00,44.1,40.8,30.18,SE,135,3.8,4.7,88,0.02,,,0.13,WUHU216HW,2013-01-28 16:37:00,
2013-01-28 11:42:00,44.3,41.0,30.18,SSE,158,2.9,5.4,88,0.02,,,0.13,WUHU216HW,2013-01-28 16:42:00,
2013-01-28 11:47:00,44.5,41.1,30.18,SSW,203,1.8,5.4,88,0.02,,,0.13,WUHU216HW,2013-01-28 16:47:00,
2013-01-28 11:52:00,44.6,41.3,30.17,South,180,5.4,5.4,88,0.02,,,0.13,WUHU216HW,2013-01-28 16:52:00,
2013-01-28 11:57:00,44.8,41.2,30.17,SSE,158,6.5,6.5,87,0.01,,,0.13,WUHU216HW,2013-01-28 16:57:00,
2013-01-28 12:02:00,45.0,41.7,30.16,SE,135,2.9,6.5,88,0.02,,,0.14,WUHU216HW,2013-01-28 17:02:00,
2013-01-28 12:07:00,45.0,41.4,30.16,SE,135,1.6,5.8,87,0.02,,,0.14,WUHU216HW,2013-01-28 17:07:00,
2013-01-28 12:12:00,45.2,41.6,30.15,WSW,248,3.4,5.1,87,0.02,,,0.14,WUHU216HW,2013-01-28 17:12:00,
2013-01-28 12:17:00,45.2,41.9,30.15,ESE,113,1.8,4.7,88,0.02,,,0.14,WUHU216HW,2013-01-28 17:17:00,
2013-01-28 12:22:00,45.2,41.9,30.15,SSW,203,2.5,4.7,88,0.02,,,0.14,WUHU216HW,2013-01-28 17:22:00,
2013-01-28 12:27:00,45.2,41.9,30.15,SW,225,5.8,7.6,88,0.02,,,0.14,WUHU216HW,2013-01-28 17:27:00,
2013-01-28 12:32:00,45.4,42.0,30.15,SE,135,1.8,7.6,88,0.02,,,0.14,WUHU216HW,2013-01-28 17:32:00,
2013-01-28 12:37:00,45.5,42.2,30.14,SW,225,2.7,8.5,88,0.02,,,0.14,WUHU216HW,2013-01-28 17:37:00,
2013-01-28 12:42:00,45.5,42.2,30.14,SE,135,3.4,8.5,88,0.02,,,0.15,WUHU216HW,2013-01-28 17:42:00,
2013-01-28 12:47:00,45.5,42.6,30.13,SSW,203,2.9,4.7,89,0.03,,,0.15,WUHU216HW,2013-01-28 17:47:00,
2013-01-28 12:52:00,45.5,42.8,30.13,SSW,203,2.5,4.9,90,0.04,,,0.16,WUHU216HW,2013-01-28 17:52:00,
2013-01-28 12:57:00,45.4,42.7,30.13,South,180,1.8,7.4,90,0.03,,,0.17,WUHU216HW,2013-01-28 17:57:00,
2013-01-28 13:02:00,45.5,42.8,30.12,SSE,158,5.6,7.4,90,0.03,,,0.17,WUHU216HW,2013-01-28 18:02:00,
2013-01-28 13:07:00,45.7,43.0,30.12,SE,135,5.4,6.0,90,0.03,,,0.17,WUHU216HW,2013-01-28 18:07:00,
2013-01-28 13:12:00,45.7,43.0,30.12,SSE,158,4.9,6.0,90,0.03,,,0.17,WUHU216HW,2013-01-28 18:12:00,
2013-01-28 13:17:00,45.9,43.2,30.12,SE,135,2.5,4.9,90,0.03,,,0.17,WUHU216HW,2013-01-28 18:17:00,
2013-01-28 13:22:00,45.9,43.2,30.12,SSW,203,3.4,4.9,90,0.03,,,0.17,WUHU216HW,2013-01-28 18:22:00,
2013-01-28 13:27:00,45.9,42.9,30.12,South,180,2.5,4.0,89,0.03,,,0.17,WUHU216HW,2013-01-28 18:27:00,
2013-01-28 13:32:00,46.1,43.1,30.12,ENE,68,1.3,5.4,89,0.03,,,0.17,WUHU216HW,2013-01-28 18:32:00,
2013-01-28 13:37:00,46.3,43.3,30.12,ESE,113,3.8,5.4,89,0.02,,,0.17,WUHU216HW,2013-01-28 18:37:00,
2013-01-28 13:42:00,46.4,43.5,30.12,SW,225,2.2,5.4,89,0.02,,,0.17,WUHU216HW,2013-01-28 18:42:00,
2013-01-28 13:47:00,46.4,43.1,30.11,South,180,2.7,5.4,88,0.01,,,0.17,WUHU216HW,2013-01-28 18:47:00,
2013-01-28 13:52:00,46.4,43.1,30.11,WSW,248,2.7,5.6,88,0.00,,,0.17,WUHU216HW,2013-01-28 18:52:00,
2013-01-28 13:57:00,46.6,43.7,30.10,SE,135,6.7,6.7,89,0.00,,,0.17,WUHU216HW,2013-01-28 18:57:00,
2013-01-28 14:02:00,47.0,43.7,30.11,South,180,3.6,6.7,88,0.00,,,0.17,WUHU216HW,2013-01-28 19:02:00,
2013-01-28 14:07:00,47.0,43.7,30.10,SSE,158,3.1,4.0,88,0.00,,,0.17,WUHU216HW,2013-01-28 19:07:00,
2013-01-28 14:12:00,47.0,43.7,30.10,South,180,2.7,4.0,88,0.00,,,0.17,WUHU216HW,2013-01-28 19:12:00,
2013-01-28 14:17:00,47.2,43.8,30.10,ESE,113,1.6,5.4,88,0.00,,,0.17,WUHU216HW,2013-01-28 19:17:00,
2013-01-28 14:22:00,47.0,43.7,30.10,WSW,248,1.8,5.4,88,0.00,,,0.17,WUHU216HW,2013-01-28 19:22:00,
2013-01-28 14:27:00,47.0,43.7,30.10,SSW,203,2.0,2.9,88,0.00,,,0.17,WUHU216HW,2013-01-28 19:27:00,
2013-01-28 14:32:00,47.0,43.7,30.11,SW,225,1.8,2.9,88,0.00,,,0.17,WUHU216HW,2013-01-28 19:32:00,
2013-01-28 14:37:00,47.0,43.7,30.11,SSW,203,1.8,1.8,88,0.00,,,0.17,WUHU216HW,2013-01-28 19:37:00,
2013-01-28 14:42:00,47.2,43.8,30.11,SE,135,2.9,2.9,88,0.00,,,0.17,WUHU216HW,2013-01-28 19:42:00,
2013-01-28 14:47:00,47.2,43.8,30.11,South,180,3.1,3.4,88,0.00,,,0.17,WUHU216HW,2013-01-28 19:47:00,
2013-01-28 14:52:00,47.2,43.8,30.11,SSW,203,1.6,3.4,88,0.00,,,0.17,WUHU216HW,2013-01-28 19:52:00,
2013-01-28 14:57:00,47.3,44.4,30.11,SW,225,1.3,3.4,89,0.00,,,0.17,WUHU216HW,2013-01-28 19:57:00,
2013-01-28 15:02:00,47.5,44.5,30.11,West,270,2.2,3.1,89,0.00,,,0.17,WUHU216HW,2013-01-28 20:02:00,
2013-01-28 15:07:00,47.7,44.6,30.12,SE,135,3.4,3.4,89,0.00,,,0.17,WUHU216HW,2013-01-28 20:07:00,
2013-01-28 15:12:00,47.9,45.2,30.12,South,180,1.1,5.1,90,0.00,,,0.17,WUHU216HW,2013-01-28 20:12:00,
2013-01-28 15:17:00,47.9,45.2,30.12,WSW,248,3.1,5.1,90,0.00,,,0.17,WUHU216HW,2013-01-28 20:17:00,
2013-01-28 15:22:00,48.1,45.4,30.12,SSW,203,0.9,6.3,90,0.00,,,0.17,WUHU216HW,2013-01-28 20:22:00,
2013-01-28 15:27:00,48.2,45.5,30.12,West,270,4.0,6.3,90,0.00,,,0.17,WUHU216HW,2013-01-28 20:27:00,
2013-01-28 15:32:00,48.4,45.7,30.12,SE,135,3.8,4.9,90,0.00,,,0.17,WUHU216HW,2013-01-28 20:32:00,
2013-01-28 15:37:00,48.6,45.5,30.12,SSE,158,1.8,4.9,89,0.00,,,0.17,WUHU216HW,2013-01-28 20:37:00,
2013-01-28 15:42:00,48.6,45.5,30.12,WSW,248,2.7,5.1,89,0.00,,,0.17,WUHU216HW,2013-01-28 20:42:00,
2013-01-28 15:47:00,48.8,45.7,30.12,West,270,1.8,5.1,89,0.00,,,0.17,WUHU216HW,2013-01-28 20:47:00,
2013-01-28 15:52:00,49.0,45.9,30.13,WSW,248,1.8,4.7,89,0.00,,,0.17,WUHU216HW,2013-01-28 20:52:00,
2013-01-28 15:57:00,49.0,45.9,30.12,SW,225,2.2,4.0,89,0.00,,,0.17,WUHU216HW,2013-01-28 20:57:00,
2013-01-28 16:02:00,49.1,45.7,30.12,NE,45,0.9,2.5,88,0.00,,,0.17,WUHU216HW,2013-01-28 21:02:00,
2013-01-28 16:07:00,49.3,45.9,30.12,South,180,2.5,4.7,88,0.00,,,0.17,WUHU216HW,2013-01-28 21:07:00,
2013-01-28 16:12:00,49.3,45.9,30.12,SSW,203,2.5,3.1,88,0.00,,,0.17,WUHU216HW,2013-01-28 21:12:00,
2013-01-28 16:17:00,49.3,45.9,30.13,ENE,68,1.1,3.6,88,0.00,,,0.17,WUHU216HW,2013-01-28 21:17:00,
2013-01-28 16:22:00,49.5,46.1,30.13,West,270,2.9,3.6,88,0.00,,,0.17,WUHU216HW,2013-01-28 21:22:00,
2013-01-28 16:27:00,49.3,45.9,30.13,SSW,203,0.4,2.9,88,0.00,,,0.17,WUHU216HW,2013-01-28 21:27:00,
2013-01-28 16:32:00,49.3,45.9,30.13,WSW,248,5.6,5.6,88,0.00,,,0.17,WUHU216HW,2013-01-28 21:32:00,
2013-01-28 16:37:00,49.5,46.4,30.13,SSW,203,2.9,5.6,89,0.00,,,0.17,WUHU216HW,2013-01-28 21:37:00,
2013-01-28 16:42:00,49.9,46.4,30.14,SW,225,3.6,5.4,88,0.00,,,0.17,WUHU216HW,2013-01-28 21:42:00,
2013-01-28 16:47:00,49.9,46.4,30.14,SSW,203,0.2,5.4,88,0.00,,,0.17,WUHU216HW,2013-01-28 21:47:00,
2013-01-28 16:52:00,49.9,46.4,30.13,WSW,248,0.7,3.1,88,0.00,,,0.17,WUHU216HW,2013-01-28 21:52:00,
2013-01-28 16:57:00,49.7,46.3,30.14,WNW,293,2.5,3.4,88,0.00,,,0.17,WUHU216HW,2013-01-28 21:57:00,
2013-01-28 17:02:00,49.7,46.3,30.15,South,180,2.5,3.4,88,0.00,,,0.17,WUHU216HW,2013-01-28 22:02:00,
2013-01-28 17:07:00,49.7,46.5,30.14,SSW,203,2.7,4.7,89,0.00,,,0.17,WUHU216HW,2013-01-28 22:07:00,
2013-01-28 17:12:00,49.7,46.5,30.15,NNW,338,0.7,4.9,89,0.00,,,0.17,WUHU216HW,2013-01-28 22:12:00,
2013-01-28 17:17:00,49.7,46.5,30.15,WSW,248,0.4,4.9,89,0.00,,,0.17,WUHU216HW,2013-01-28 22:17:00,
2013-01-28 17:22:00,49.7,46.5,30.14,South,180,2.9,3.4,89,0.00,,,0.17,WUHU216HW,2013-01-28 22:22:00,
2013-01-28 17:27:00,49.7,46.5,30.15,South,180,0.2,3.4,89,0.00,,,0.17,WUHU216HW,2013-01-28 22:27:00,
2013-01-28 17:32:00,49.7,46.5,30.15,SW,225,2.9,3.8,89,0.00,,,0.17,WUHU216HW,2013-01-28 22:32:00,
2013-01-28 17:37:00,49.7,46.5,30.15,South,180,1.1,3.8,89,0.00,,,0.17,WUHU216HW,2013-01-28 22:37:00,
2013-01-28 17:42:00,49.7,46.8,30.15,SSW,203,0.9,2.5,90,0.00,,,0.17,WUHU216HW,2013-01-28 22:42:00,
2013-01-28 17:47:00,49.7,46.8,30.15,South,180,4.7,4.7,90,0.00,,,0.17,WUHU216HW,2013-01-28 22:47:00,
2013-01-28 17:52:00,49.7,46.8,30.15,SW,225,0.9,4.7,90,0.00,,,0.17,WUHU216HW,2013-01-28 22:52:00,
2013-01-28 17:57:00,49.7,46.8,30.16,SSW,203,2.5,3.8,90,0.00,,,0.17,WUHU216HW,2013-01-28 22:57:00,
2013-01-28 18:02:00,49.7,46.8,30.16,SSE,158,1.8,4.7,90,0.00,,,0.17,WUHU216HW,2013-01-28 23:02:00,
2013-01-28 18:07:00,49.7,46.8,30.17,South,180,2.5,4.7,90,0.00,,,0.17,WUHU216HW,2013-01-28 23:07:00,
2013-01-28 18:12:00,49.7,46.8,30.17,West,270,2.5,2.7,90,0.00,,,0.17,WUHU216HW,2013-01-28 23:12:00,
2013-01-28 18:17:00,49.7,46.8,30.17,WSW,248,2.9,3.1,90,0.00,,,0.17,WUHU216HW,2013-01-28 23:17:00,
2013-01-28 18:22:00,49.7,46.8,30.18,North,0,2.2,3.1,90,0.00,,,0.17,WUHU216HW,2013-01-28 23:22:00,
2013-01-28 18:27:00,49.7,46.8,30.18,SW,225,3.4,3.4,90,0.00,,,0.17,WUHU216HW,2013-01-28 23:27:00,
2013-01-28 18:32:00,49.7,47.2,30.18,South,180,1.8,3.4,91,0.00,,,0.17,WUHU216HW,2013-01-28 23:32:00,
2013-01-28 18:37:00,49.5,46.7,30.18,East,90,1.8,2.7,90,0.00,,,0.17,WUHU216HW,2013-01-28 23:37:00,
2013-01-28 18:42:00,49.5,46.7,30.18,SSW,203,2.9,4.3,90,0.00,,,0.17,WUHU216HW,2013-01-28 23:42:00,
2013-01-28 18:47:00,49.3,46.8,30.18,SSW,203,0.4,4.3,91,0.00,,,0.17,WUHU216HW,2013-01-28 23:47:00,
2013-01-28 18:52:00,49.3,46.8,30.18,SW,225,0.2,3.8,91,0.00,,,0.17,WUHU216HW,2013-01-28 23:52:00,
2013-01-28 18:57:00,49.3,46.8,30.18,SW,225,1.8,2.2,91,0.00,,,0.17,WUHU216HW,2013-01-28 23:57:00,
2013-01-28 19:02:00,49.3,46.8,30.18,SW,225,1.1,2.2,91,0.00,,,0.17,WUHU216HW,2013-01-29 00:02:00,
2013-01-28 19:07:00,49.3,46.8,30.19,NNW,338,0.4,4.5,91,0.00,,,0.17,WUHU216HW,2013-01-29 00:07:00,
2013-01-28 19:12:00,49.3,47.1,30.19,SW,225,1.8,4.5,92,0.00,,,0.17,WUHU216HW,2013-01-29 00:12:00,
2013-01-28 19:17:00,49.3,47.1,30.19,SW,225,1.8,2.9,92,0.00,,,0.17,WUHU216HW,2013-01-29 00:17:00,
2013-01-28 19:22:00,49.1,46.9,30.19,SSE,158,0.4,2.5,92,0.00,,,0.17,WUHU216HW,2013-01-29 00:22:00,
2013-01-28 19:27:00,49.0,46.7,30.19,SSW,203,1.3,2.2,92,0.00,,,0.17,WUHU216HW,2013-01-29 00:27:00,
2013-01-28 19:32:00,49.1,46.9,30.19,South,180,0.2,2.5,92,0.00,,,0.17,WUHU216HW,2013-01-29 00:32:00,
2013-01-28 19:37:00,49.1,46.9,30.19,SW,225,1.1,2.5,92,0.00,,,0.17,WUHU216HW,2013-01-29 00:37:00,
2013-01-28 19:42:00,49.0,46.7,30.19,SW,225,0.9,1.8,92,0.00,,,0.17,WUHU216HW,2013-01-29 00:42:00,
2013-01-28 19:47:00,49.0,46.7,30.19,SE,135,0.2,2.2,92,0.00,,,0.17,WUHU216HW,2013-01-29 00:47:00,
2013-01-28 19:52:00,49.0,46.7,30.18,WSW,248,1.3,3.1,92,0.00,,,0.17,WUHU216HW,2013-01-29 00:52:00,
2013-01-28 19:57:00,49.0,46.7,30.19,SSW,203,0.4,3.1,92,0.00,,,0.17,WUHU216HW,2013-01-29 00:57:00,
2013-01-28 20:02:00,49.0,46.7,30.19,WSW,248,0.4,2.5,92,0.00,,,0.17,WUHU216HW,2013-01-29 01:02:00,
2013-01-28 20:07:00,48.8,46.6,30.19,SSW,203,0.7,3.4,92,0.00,,,0.17,WUHU216HW,2013-01-29 01:07:00,
2013-01-28 20:12:00,49.0,46.7,30.19,SW,225,1.8,3.4,92,0.00,,,0.17,WUHU216HW,2013-01-29 01:12:00,
2013-01-28 20:17:00,48.8,46.6,30.19,SW,225,0.7,1.8,92,0.00,,,0.17,WUHU216HW,2013-01-29 01:17:00,
2013-01-28 20:22:00,49.0,46.7,30.19,South,180,1.8,1.8,92,0.00,,,0.17,WUHU216HW,2013-01-29 01:22:00,
2013-01-28 20:27:00,49.0,46.7,30.19,SW,225,1.1,2.2,92,0.00,,,0.17,WUHU216HW,2013-01-29 01:27:00,
2013-01-28 20:32:00,49.0,46.7,30.19,ESE,113,2.7,2.9,92,0.00,,,0.17,WUHU216HW,2013-01-29 01:32:00,
2013-01-28 20:37:00,49.0,47.0,30.19,SSW,203,0.9,2.9,93,0.00,,,0.17,WUHU216HW,2013-01-29 01:37:00,
2013-01-28 20:42:00,49.0,46.7,30.19,South,180,0.2,2.7,92,0.00,,,0.17,WUHU216HW,2013-01-29 01:42:00,
2013-01-28 20:47:00,48.8,46.9,30.19,WSW,248,0.0,1.6,93,0.00,,,0.17,WUHU216HW,2013-01-29 01:47:00,
2013-01-28 20:52:00,48.8,46.6,30.20,SW,225,0.4,1.1,92,0.00,,,0.17,WUHU216HW,2013-01-29 01:52:00,
2013-01-28 20:57:00,48.6,46.5,30.20,SE,135,1.1,1.1,92,0.00,,,0.17,WUHU216HW,2013-01-29 01:57:00,
2013-01-28 21:02:00,48.8,46.6,30.20,SSE,158,0.2,1.3,92,0.00,,,0.17,WUHU216HW,2013-01-29 02:02:00,
2013-01-28 21:07:00,48.8,46.6,30.20,SSW,203,0.4,1.3,92,0.00,,,0.17,WUHU216HW,2013-01-29 02:07:00,
2013-01-28 21:12:00,48.8,46.6,30.20,West,270,0.9,1.8,92,0.00,,,0.17,WUHU216HW,2013-01-29 02:12:00,
2013-01-28 21:17:00,48.6,46.5,30.20,SSE,158,0.4,1.8,92,0.00,,,0.17,WUHU216HW,2013-01-29 02:17:00,
2013-01-28 21:22:00,48.6,46.5,30.20,SSW,203,0.9,1.3,92,0.00,,,0.17,WUHU216HW,2013-01-29 02:22:00,
2013-01-28 21:27:00,48.6,46.7,30.20,South,180,0.4,1.6,93,0.00,,,0.17,WUHU216HW,2013-01-29 02:27:00,
2013-01-28 21:32:00,48.6,46.7,30.20,SSW,203,0.4,1.6,93,0.00,,,0.17,WUHU216HW,2013-01-29 02:32:00,
2013-01-28 21:37:00,48.6,46.5,30.20,SSE,158,1.1,1.1,92,0.00,,,0.17,WUHU216HW,2013-01-29 02:37:00,
2013-01-28 21:42:00,48.6,46.5,30.20,WSW,248,0.2,1.3,92,0.00,,,0.17,WUHU216HW,2013-01-29 02:42:00,
2013-01-28 21:47:00,48.6,46.5,30.20,South,180,2.0,2.0,92,0.00,,,0.17,WUHU216HW,2013-01-29 02:47:00,
2013-01-28 21:52:00,48.6,46.5,30.20,SSE,158,0.0,2.2,92,0.00,,,0.17,WUHU216HW,2013-01-29 02:52:00,
2013-01-28 21:57:00,48.6,46.5,30.20,SSW,203,0.4,2.2,92,0.00,,,0.17,WUHU216HW,2013-01-29 02:57:00,
2013-01-28 22:02:00,48.4,46.3,30.20,SSW,203,0.9,2.5,92,0.00,,,0.17,WUHU216HW,2013-01-29 03:02:00,
2013-01-28 22:07:00,48.4,46.3,30.20,ESE,113,0.4,2.5,92,0.00,,,0.17,WUHU216HW,2013-01-29 03:07:00,
2013-01-28 22:12:00,48.4,46.3,30.20,South,180,1.3,2.0,92,0.00,,,0.17,WUHU216HW,2013-01-29 03:12:00,
2013-01-28 22:17:00,48.4,46.3,30.20,SSW,203,0.4,1.8,92,0.00,,,0.17,WUHU216HW,2013-01-29 03:17:00,
2013-01-28 22:22:00,48.4,46.3,30.21,South,180,0.0,1.8,92,0.00,,,0.17,WUHU216HW,2013-01-29 03:22:00,
2013-01-28 22:27:00,48.2,46.1,30.21,SSE,158,0.7,0.7,92,0.00,,,0.17,WUHU216HW,2013-01-29 03:27:00,
2013-01-28 22:32:00,48.2,46.1,30.21,WSW,248,1.1,1.8,92,0.00,,,0.17,WUHU216HW,2013-01-29 03:32:00,
2013-01-28 22:37:00,48.4,46.3,30.21,SSE,158,0.4,1.8,92,0.01,,,0.17,WUHU216HW,2013-01-29 03:37:00,
2013-01-28 22:42:00,48.4,46.3,30.21,SE,135,0.0,0.9,92,0.01,,,0.18,WUHU216HW,2013-01-29 03:42:00,
2013-01-28 22:47:00,48.2,46.1,30.21,SW,225,0.2,1.8,92,0.01,,,0.18,WUHU216HW,2013-01-29 03:47:00,
2013-01-28 22:52:00,48.2,46.1,30.21,SSW,203,2.2,2.2,92,0.01,,,0.18,WUHU216HW,2013-01-29 03:52:00,
2013-01-28 22:57:00,48.2,46.1,30.21,SW,225,0.0,2.2,92,0.01,,,0.18,WUHU216HW,2013-01-29 03:57:00,
2013-01-28 23:02:00,48.2,46.1,30.22,SSW,203,0.0,1.8,92,0.01,,,0.18,WUHU216HW,2013-01-29 04:02:00,
2013-01-28 23:07:00,48.2,46.1,30.22,SSW,203,0.2,1.8,92,0.01,,,0.18,WUHU216HW,2013-01-29 04:07:00,
2013-01-28 23:12:00,48.2,46.1,30.22,South,180,0.0,1.1,92,0.01,,,0.18,WUHU216HW,2013-01-29 04:12:00,
2013-01-28 23:17:00,48.2,46.4,30.22,SW,225,0.4,1.6,93,0.01,,,0.18,WUHU216HW,2013-01-29 04:17:00,
2013-01-28 23:22:00,48.1,45.9,30.21,South,180,0.7,1.6,92,0.01,,,0.18,WUHU216HW,2013-01-29 04:22:00,
2013-01-28 23:27:00,48.1,45.9,30.22,South,180,0.0,1.1,92,0.01,,,0.18,WUHU216HW,2013-01-29 04:27:00,
2013-01-28 23:32:00,48.1,45.9,30.23,SSW,203,0.0,1.1,92,0.01,,,0.18,WUHU216HW,2013-01-29 04:32:00,
2013-01-28 23:37:00,48.1,45.9,30.23,NE,45,0.4,0.4,92,0.00,,,0.18,WUHU216HW,2013-01-29 04:37:00,
2013-01-28 23:42:00,48.1,45.9,30.23,South,180,0.7,0.9,92,0.00,,,0.18,WUHU216HW,2013-01-29 04:42:00,
2013-01-28 23:47:00,47.9,45.7,30.24,North,0,3.4,3.4,92,0.00,,,0.18,WUHU216HW,2013-01-29 04:47:00,
2013-01-28 23:52:00,45.7,43.0,30.24,NNW,338,2.2,5.6,90,0.00,,,0.18,WUHU216HW,2013-01-29 04:52:00,
2013-01-28 23:57:00,43.9,41.0,30.24,NNW,338,1.8,5.6,89,0.00,,,0.18,WUHU216HW,2013-01-29 04:57:00,